Total_Precipitation_Accumulation
0.05 0.09 0.15 0.15 0.13 0.16 0.20 0.28 0.39 0.50 0.44 0.47 0.60 0.90 1.17 1.36 1.30 1.13 1.18 1.36 1.36 1.33 1.47 1.67 2.15 2.78 3.21 3.73 4.17 4.16 3.93 3.96 4.00 4.04 3.87 4.05 4.24 4.53 4.79 4.68 4.57 4.50 4.40 4.33
0.09 0.10 0.08 0.09 0.12 0.12 0.17 0.26 0.36 0.50 0.47 0.53 0.63 0.94 1.31 1.44 1.42 1.36 1.33 1.52 1.39 1.40 1.61 1.86 2.31 2.63 3.04 3.41 3.62 3.93 4.08 4.11 3.87 4.17 4.47 4.75 5.08 5.12 5.41 5.66 5.72 5.55 5.28 5.04
0.11 0.07 0.05 0.05 0.08 0.12 0.15 0.19 0.31 0.38 0.39 0.47 0.62 1.12 1.32 1.47 1.47 1.51 1.57 1.75 1.69 1.69 1.85 2.17 2.48 2.62 2.84 3.22 3.52 3.85 4.17 4.28 4.18 4.62 5.14 5.56 5.92 5.85 5.88 5.91 5.91 5.87 5.47 5.07
0.07 0.05 0.04 0.04 0.07 0.10 0.14 0.11 0.15 0.22 0.32 0.52 0.56 1.06 1.35 1.57 1.66 1.53 1.67 1.80 1.86 1.70 1.73 2.02 2.33 2.72 2.73 3.00 3.31 3.59 4.00 4.40 4.68 5.06 5.53 6.08 6.41 6.62 6.46 6.11 5.84 5.48 5.06 4.69
0.07 0.06 0.06 0.07 0.09 0.09 0.12 0.09 0.12 0.18 0.28 0.47 0.55 0.87 1.35 1.55 1.60 1.56 1.66 1.72 1.82 1.71 1.68 1.87 2.01 2.33 2.54 2.77 3.07 3.39 3.74 4.13 4.74 5.51 6.10 6.51 6.87 6.87 6.34 5.80 5.22 4.76 4.42 4.12
0.05 0.05 0.05 0.05 0.05 0.06 0.08 0.14 0.19 0.23 0.33 0.62 0.55 0.81 1.48 1.67 1.68 1.77 1.72 1.70 1.78 1.76 1.76 1.89 2.00 2.26 2.43 2.55 2.82 3.18 3.62 3.98 4.51 5.25 5.91 6.19 6.38 6.32 5.87 5.24 4.69 4.26 3.85 3.49
0.10 0.08 0.05 0.04 0.05 0.07 0.09 0.25 0.49 0.63 0.67 0.66 0.52 0.83 1.56 1.78 1.72 1.74 1.81 1.84 1.93 1.95 1.94 1.88 1.88 2.01 2.24 2.38 2.59 2.90 3.27 3.74 4.11 4.51 5.05 5.14 5.19 4.97 4.59 4.37 4.06 3.59 3.16 2.80
0.22 0.21 0.10 0.06 0.06 0.08 0.09 0.22 0.56 0.74 0.75 0.77 0.82 1.32 1.93 1.93 1.82 1.78 1.73 1.68 1.74 1.81 1.75 1.76 1.70 1.89 2.13 2.36 2.55 2.72 2.98 3.38 3.72 3.84 3.93 3.86 3.74 3.66 3.53 3.32 2.96 2.63 2.39 2.21
0.31 0.29 0.12 0.07 0.06 0.06 0.10 0.15 0.23 0.35 0.51 0.79 1.17 1.65 2.12 2.22 2.03 1.83 1.74 1.64 1.63 1.60 1.53 1.61 1.63 1.74 1.94 2.25 2.41 2.55 2.68 2.83 2.85 2.83 2.83 2.81 2.79 2.67 2.63 2.52 2.23 2.02 1.88 1.74
0.21 0.23 0.12 0.08 0.08 0.09 0.09 0.12 0.19 0.40 0.68 1.00 1.35 1.90 2.35 2.51 2.30 1.82 1.60 1.50 1.49 1.54 1.56 1.58 1.66 1.76 1.70 1.80 1.93 2.07 2.21 2.35 2.33 2.20 2.09 2.15 2.14 2.02 1.91 1.77 1.65 1.54 1.46 1.38
0.18 0.23 0.17 0.12 0.15 0.15 0.13 0.17 0.23 0.41 0.52 0.84 1.45 2.15 2.21 2.52 2.45 2.11 1.77 1.54 1.53 1.62 1.61 1.53 1.59 1.63 1.51 1.46 1.44 1.51 1.64 1.82 1.90 1.83 1.79 1.82 1.78 1.71 1.59 1.50 1.41 1.33 1.25 1.20
0.19 0.30 0.32 0.22 0.20 0.18 0.18 0.22 0.29 0.58 0.63 0.65 1.30 2.30 2.17 2.23 2.35 2.26 2.06 1.86 1.69 1.64 1.60 1.49 1.47 1.52 1.46 1.38 1.28 1.32 1.39 1.37 1.42 1.45 1.57 1.68 1.59 1.53 1.47 1.44 1.40 1.32 1.17 1.13
0.22 0.41 0.68 0.72 0.62 0.35 0.27 0.23 0.24 0.32 0.50 0.74 1.31 2.25 2.35 2.31 2.28 2.24 2.11 1.85 1.73 1.76 1.78 1.59 1.43 1.41 1.42 1.33 1.27 1.26 1.29 1.20 1.17 1.19 1.23 1.35 1.40 1.39 1.37 1.23 1.17 1.16 1.11 1.09
0.20 0.45 0.78 1.20 1.09 0.59 0.37 0.29 0.26 0.34 0.60 0.85 1.22 1.75 1.93 2.18 2.41 2.24 2.00 1.76 1.68 1.82 1.77 1.55 1.44 1.38 1.30 1.24 1.22 1.18 1.13 1.02 1.02 1.05 1.15 1.19 1.22 1.27 1.28 1.19 1.10 1.06 1.01 0.98
0.25 0.52 0.57 0.63 0.45 0.36 0.37 0.36 0.34 0.38 0.49 0.87 1.27 1.67 1.97 2.18 2.22 2.12 1.85 1.61 1.62 1.71 1.73 1.65 1.50 1.37 1.20 1.10 1.07 1.04 1.01 0.95 0.93 0.99 1.11 1.19 1.13 1.10 1.17 1.23 1.12 0.97 0.93 0.86
0.26 0.50 0.51 0.52 0.42 0.41 0.50 0.49 0.53 0.57 0.62 0.81 1.19 1.73 1.91 1.89 1.70 1.72 1.70 1.55 1.66 1.83 1.93 1.87 1.71 1.52 1.31 1.15 1.08 1.05 1.01 0.89 0.85 0.91 1.06 1.12 1.12 1.09 1.11 1.16 1.11 1.02 0.96 0.92
0.33 0.57 0.71 0.72 0.53 0.68 1.07 0.85 0.80 0.83 0.85 0.96 1.33 1.50 1.40 1.44 1.45 1.51 1.56 1.60 1.79 1.95 1.98 1.89 1.78 1.60 1.41 1.31 1.19 1.16 1.09 0.95 0.95 0.96 0.98 1.06 1.09 1.14 1.16 1.14 1.10 1.06 1.05 1.04
0.36 0.62 0.77 0.71 0.85 1.43 1.36 0.85 0.80 0.86 0.91 0.87 0.94 0.95 1.04 1.16 1.30 1.48 1.56 1.69 1.90 2.03 2.13 2.06 1.83 1.65 1.42 1.27 1.19 1.13 1.07 1.00 1.05 1.02 0.96 0.97 0.97 0.99 0.99 1.05 1.10 1.08 1.05 0.99
0.23 0.54 0.85 0.94 1.24 1.47 1.27 0.82 0.78 0.97 1.13 0.86 0.78 0.75 0.85 0.94 1.12 1.59 1.70 1.76 1.90 2.02 2.01 1.95 1.76 1.63 1.49 1.32 1.23 1.14 1.08 1.06 1.02 0.96 0.92 0.87 0.82 0.84 0.85 0.92 1.03 1.11 1.08 0.97
0.25 0.39 0.86 1.07 1.50 1.93 1.61 0.75 0.50 0.80 1.46 0.99 0.70 0.63 0.74 0.96 1.33 1.55 1.49 1.52 1.55 1.57 1.50 1.47 1.41 1.37 1.33 1.21 1.15 1.13 1.12 1.06 0.98 0.88 0.81 0.75 0.76 0.79 0.80 0.85 0.96 1.03 1.07 0.95
0.61 0.70 0.93 1.14 1.52 1.75 0.94 0.51 0.55 1.31 1.65 1.14 0.93 0.81 0.85 1.07 1.20 1.09 1.05 1.18 1.27 1.30 1.25 1.18 1.16 1.20 1.18 1.10 1.11 1.12 1.06 0.99 0.85 0.76 0.73 0.72 0.75 0.79 0.78 0.87 0.95 0.92 0.86 0.84
0.73 0.92 1.06 1.30 1.70 1.80 0.73 0.55 0.99 1.21 0.92 0.88 0.91 0.89 0.90 0.89 0.83 0.81 0.88 1.06 1.25 1.42 1.34 1.21 1.17 1.13 1.05 1.03 1.11 1.12 1.03 0.85 0.72 0.69 0.71 0.75 0.75 0.71 0.71 0.86 0.93 0.84 0.80 0.79
0.92 1.02 1.13 1.35 1.55 1.14 0.64 0.63 0.66 0.67 0.66 0.67 0.69 0.70 0.74 0.82 0.82 0.80 0.88 1.01 1.19 1.30 1.29 1.24 1.14 1.06 0.96 0.91 0.96 0.98 0.85 0.67 0.60 0.65 0.73 0.76 0.71 0.78 0.79 0.77 0.78 0.78 0.78 0.68
1.07 0.90 0.95 1.10 1.07 0.78 0.59 0.51 0.48 0.51 0.55 0.56 0.63 0.65 0.72 0.89 0.91 0.87 0.91 1.01 1.14 1.17 1.08 0.99 0.93 0.89 0.81 0.73 0.70 0.67 0.57 0.53 0.59 0.68 0.72 0.70 0.71 0.82 0.82 0.74 0.64 0.61 0.60 0.56
0.99 1.11 1.24 1.35 1.20 0.92 0.65 0.52 0.53 0.51 0.54 0.59 0.68 0.70 0.74 0.80 0.85 0.88 0.90 0.92 0.94 0.95 0.89 0.80 0.77 0.74 0.63 0.58 0.53 0.46 0.44 0.48 0.58 0.62 0.66 0.66 0.68 0.73 0.79 0.70 0.55 0.50 0.44 0.37
0.75 1.07 1.51 1.70 1.34 1.18 0.89 0.67 0.68 0.67 0.67 0.67 0.65 0.62 0.64 0.63 0.65 0.70 0.73 0.75 0.75 0.79 0.76 0.75 0.67 0.63 0.55 0.52 0.49 0.45 0.41 0.44 0.56 0.60 0.57 0.53 0.56 0.59 0.63 0.62 0.53 0.36 0.23 0.17